Regional Weather Roundup
Issued by NWS

Home | Current Version | Previous Version | Graphics & Text | Print | Product List | Glossary On
Versions: 1 2 3 4 5 6 7 8 9 10 11 12 13 14 15 16 17 18 19 20 21 22 23 24 25 26 27 28 29 30 31 32 33 34 35 36 37 38 39 40 41 42 43 44 45 46 47 48 49 50
000
ASUS45 KPSR 222000
RWRAZ

ARIZONA HOURLY REGIONAL WEATHER ROUNDUP
NATIONAL WEATHER SERVICE PHOENIX AZ
100 PM MST FRI MAY 22 2015

NOTE: FAIR INDICATES FEW OR NO CLOUDS BELOW 12,000 FEET WITH NO
SIGNIFICANT WEATHER AND/OR OBSTRUCTIONS TO VISIBILITY.

AZZ001>003-036-222100-
NORTHWEST ARIZONA

CITY           SKY/WX    TMP DP  RH WIND       PRES   REMARKS
KINGMAN        LGT RAIN  58  40  51 SW20G26   29.89F
$$

AZZ004>008-015-016-018-222100-
NORTH CENTRAL ARIZONA

CITY           SKY/WX    TMP DP  RH WIND       PRES   REMARKS
WILLIAMS       DRIZZLE   43  37  81 W14       30.05S
PRESCOTT       PTSUNNY   59  33  37 S12G22    29.94F
FLAGSTAFF      NOT AVBL
PAYSON         MOSUNNY   64  27  24 S14G26    29.99F
$$

AZZ009>014-017-222100-
NORTHEAST ARIZONA

CITY           SKY/WX    TMP DP  RH WIND       PRES   REMARKS
WINSLOW        NOT AVBL
SAINT JOHNS    PTSUNNY   70  18  13 S9G25     29.92F
WINDOW ROCK    PTSUNNY   66  21  18 S16G32    29.99F
$$

AZZ023-222100-
GREATER PHOENIX AREA

CITY           SKY/WX    TMP DP  RH WIND       PRES   REMARKS
PHOENIX        MOSUNNY   81  37  20 S16       29.86F
GLENDALE       MOSUNNY   77  41  27 S12G26    29.89F
DEER VALLEY    MOSUNNY   76  39  26 SW14G23   29.87F
SCOTTSDALE     SUNNY     78  31  17 SW15G21   29.89F
MESA-FALCON    MOSUNNY  N/A N/A N/A SW12      29.87F
MESA-GATEWAY   MOSUNNY   75  39  27 SW15      29.90F
CHANDLER       MOSUNNY   77  39  25 SW17      29.88F
$$

AZZ027-028-222100-
SOUTHWEST MARICOPA COUNTY AND PINAL COUNTY

CITY           SKY/WX    TMP DP  RH WIND       PRES   REMARKS
CASA GRANDE    SUNNY     79  37  22 SW17G28   29.87F
$$

AZZ503-504-507>509-222100-
SOUTHEAST ARIZONA

CITY           SKY/WX    TMP DP  RH WIND       PRES   REMARKS
TUCSON         SUNNY     82  21  10 SW25G37   29.92F
RYAN FIELD       N/A     82  27  13 SW21G32   29.92F
NOGALES        MOSUNNY   77  27  15 S22G29    29.98F
SIERRA VISTA   MOSUNNY   75  19  12 SW20G31   29.99F
SAFFORD        SUNNY     83  16   8 S13G22    29.86F
$$

AZZ020-021-025-026-031-222100-
SOUTHWEST ARIZONA

CITY           SKY/WX    TMP DP  RH WIND       PRES   REMARKS
YUMA           SUNNY     79  40  24 W18G25    29.91F
$$

CAZ031-033-041-043-047-048-061-222100-
SOUTHERN CALIFORNIA

CITY           SKY/WX    TMP DP  RH WIND       PRES   REMARKS
DOWNTOWN L.A.  PTSUNNY   68  50  52 VRB6      30.02S
L.A. AIRPORT   PTSUNNY   62  51  67 W14       30.04S
SAN DIEGO      PTSUNNY   66  49  54 SW12G20   30.07S
BURBANK        CLOUDY    64  46  52 S8G17     30.01S
ONTARIO        CLOUDY    62  45  53 VRB6      30.02F
RIVERSIDE      CLOUDY    62  47  57 W10       30.03S
PALM SPRINGS   MOSUNNY   78  40  25 NW15G26   29.90F
EL CENTRO NAS  MOSUNNY   78  40  25 SW28      29.93F
IMPERIAL       PTSUNNY   76  40  27 W13G26    29.90F
BLYTHE         SUNNY     79  39  23 SW12      29.86F
$$

NVZ020-UTZ003-222100-
SOUTHERN NEVADA-UTAH

CITY           SKY/WX    TMP DP  RH WIND       PRES   REMARKS
LAS VEGAS      NOT AVBL
SALT LAKE CITY CLOUDY    64  41  42 W9        29.88F
$$

NMZ009-TXZ055-222100-
NEW MEXICO-WEST TEXAS

CITY           SKY/WX    TMP DP  RH WIND       PRES   REMARKS
ALBUQUERQUE    MOSUNNY   70  40  33 S13       30.03F
EL PASO        MOSUNNY   82  41  23 S8        29.98F
$$


........................KEY........................
SKY/WX - SKY CONDITION/WEATHER
TMP    - TEMPERATURE IN FAHRENHEIT
DP     - DEW POINT IN FAHRENHEIT
RH     - RELATIVE HUMIDITY IN PERCENT
WIND   - DIRECTION AND SPEED IN MILES PER HOUR (MPH)
VRB    - VARIABLE WIND DIRECTION
PRES   - MEAN SEA LEVEL PRESSURE IN INCHES OF MERCURY
         F - FALLING PRESSURE   R - RISING PRESSURE
         S - STEADY PRESSURE
VSB    - VISIBILITY IN MILES
HX     - HEAT INDEX IN FAHRENHEIT
WCI    - WIND CHILL INDEX IN FAHRENHEIT
TC     - TEMPERATURE IN CELSIUS WHICH IS ALSO KNOWN AS
         TEMPERATURE IN CENTIGRADE
AFB    - AIR FORCE BASE
         LUKE AFB IS LUKE AIR FORCE BASE
         DAVIS-MONTHAN IS DAVIS-MONTHAN AIR FORCE BASE
NAS    - NAVAL AIR STATION
         EL CENTRO NAS IS EL CENTRO NAVAL AIR STATION
N/A    - NOT AVAILABLE



USA.gov is the U.S. government's official web portal to all federal, state and local government web resources and services.